Time,TemperatureF,DewpointF,PressureIn,WindDirection,WindDirectionDegrees,WindSpeedMPH,WindSpeedGustMPH,Humidity,HourlyPrecipIn,Conditions,Clouds,dailyrainin,SolarRadiationWatts/m^2,SoftwareType,DateUTC
2013-05-09 00:00:00,55.8,53.8,29.89,East,88,0.0,1.0,93,0.00,,---,0.05,0.00,VWS V14.01,2013-05-09 04:00:00,
2013-05-09 00:01:00,55.7,53.7,29.89,East,88,0.0,0.0,93,0.00,,---,0.00,0.00,VWS V14.01,2013-05-09 04:01:00,
2013-05-09 00:02:00,55.7,53.7,29.89,East,88,0.0,0.0,93,0.00,,---,0.00,0.00,VWS V14.01,2013-05-09 04:02:00,
2013-05-09 00:07:00,55.7,53.7,29.89,East,88,0.0,0.0,93,0.00,,---,0.00,0.00,VWS V14.01,2013-05-09 04:07:00,
2013-05-09 00:12:00,55.6,53.6,29.89,East,88,0.0,0.0,93,0.01,,---,0.01,0.00,VWS V14.01,2013-05-09 04:12:00,
2013-05-09 00:17:00,55.5,53.8,29.89,East,88,0.0,0.0,94,0.01,,---,0.01,0.00,VWS V14.01,2013-05-09 04:17:00,
2013-05-09 00:22:00,55.5,53.8,29.89,East,88,0.0,1.0,94,0.01,,---,0.01,0.00,VWS V14.01,2013-05-09 04:22:00,
2013-05-09 00:27:00,55.4,53.7,29.89,East,88,0.0,1.0,94,0.01,,---,0.01,0.00,VWS V14.01,2013-05-09 04:27:00,
2013-05-09 00:30:00,55.4,53.7,29.89,East,88,0.0,1.0,94,0.01,,---,0.01,0.00,VWS V14.01,2013-05-09 04:30:00,
2013-05-09 00:32:00,55.4,53.7,29.89,East,88,0.0,0.0,94,0.01,,---,0.01,0.00,VWS V14.01,2013-05-09 04:32:00,
2013-05-09 00:37:00,55.3,53.6,29.89,East,88,0.0,0.0,94,0.01,,---,0.01,0.00,VWS V14.01,2013-05-09 04:37:00,
2013-05-09 00:42:00,55.1,53.4,29.89,East,88,0.0,0.0,94,0.01,,---,0.01,0.00,VWS V14.01,2013-05-09 04:42:00,
2013-05-09 00:47:00,54.9,53.2,29.89,East,88,0.0,1.0,94,0.01,,---,0.01,0.00,VWS V14.01,2013-05-09 04:47:00,
2013-05-09 00:52:00,54.8,53.1,29.89,East,88,0.0,1.0,94,0.01,,---,0.01,0.00,VWS V14.01,2013-05-09 04:52:00,
2013-05-09 00:57:00,54.7,53.0,29.89,East,88,0.0,1.0,94,0.01,,---,0.01,0.00,VWS V14.01,2013-05-09 04:57:00,
2013-05-09 01:00:00,54.7,53.0,29.89,East,88,0.0,1.0,94,0.01,,---,0.01,0.00,VWS V14.01,2013-05-09 05:00:00,
2013-05-09 01:02:00,54.6,52.9,29.88,East,88,0.0,0.0,94,0.01,,---,0.01,0.00,VWS V14.01,2013-05-09 05:02:00,
2013-05-09 01:07:00,54.6,52.9,29.88,East,88,0.0,0.0,94,0.01,,---,0.01,0.00,VWS V14.01,2013-05-09 05:07:00,
2013-05-09 01:12:00,54.5,52.8,29.88,East,88,0.0,0.0,94,0.01,,---,0.01,0.00,VWS V14.01,2013-05-09 05:12:00,
2013-05-09 01:17:00,54.4,52.7,29.88,East,88,0.0,0.0,94,0.01,,---,0.01,0.00,VWS V14.01,2013-05-09 05:17:00,
2013-05-09 01:22:00,54.2,52.5,29.88,East,88,0.0,0.0,94,0.01,,---,0.01,0.00,VWS V14.01,2013-05-09 05:22:00,
2013-05-09 01:27:00,54.0,52.3,29.88,East,88,0.0,0.0,94,0.01,,---,0.01,0.00,VWS V14.01,2013-05-09 05:27:00,
2013-05-09 01:30:00,54.0,52.3,29.88,East,88,0.0,0.0,94,0.01,,---,0.01,0.00,VWS V14.01,2013-05-09 05:30:00,
2013-05-09 01:32:00,53.9,52.2,29.88,East,88,0.0,0.0,94,0.00,,---,0.01,0.00,VWS V14.01,2013-05-09 05:32:00,
2013-05-09 01:37:00,53.7,52.0,29.88,East,88,0.0,0.0,94,0.00,,---,0.01,0.00,VWS V14.01,2013-05-09 05:37:00,
2013-05-09 01:42:00,53.6,51.9,29.88,East,88,0.0,0.0,94,0.00,,---,0.01,0.00,VWS V14.01,2013-05-09 05:42:00,
2013-05-09 01:47:00,53.5,51.8,29.88,East,88,0.0,0.0,94,0.00,,---,0.01,0.00,VWS V14.01,2013-05-09 05:47:00,
2013-05-09 01:52:00,53.3,51.6,29.88,East,88,0.0,1.0,94,0.00,,---,0.01,0.00,VWS V14.01,2013-05-09 05:52:00,
2013-05-09 01:57:00,53.2,51.5,29.87,East,88,0.0,1.0,94,0.00,,---,0.01,0.00,VWS V14.01,2013-05-09 05:57:00,
2013-05-09 02:00:00,53.0,51.3,29.87,East,88,0.0,1.0,94,0.00,,---,0.01,0.00,VWS V14.01,2013-05-09 06:00:00,
2013-05-09 02:02:00,53.0,51.3,29.87,East,88,0.0,0.0,94,0.00,,---,0.01,0.00,VWS V14.01,2013-05-09 06:02:00,
2013-05-09 02:07:00,53.0,51.6,29.87,East,88,0.0,0.0,95,0.00,,---,0.01,0.00,VWS V14.01,2013-05-09 06:07:00,
2013-05-09 02:12:00,52.9,51.5,29.87,East,88,0.0,0.0,95,0.00,,---,0.01,0.00,VWS V14.01,2013-05-09 06:12:00,
2013-05-09 02:17:00,52.9,51.5,29.86,East,88,0.0,0.0,95,0.00,,---,0.01,0.00,VWS V14.01,2013-05-09 06:17:00,
2013-05-09 02:22:00,52.9,51.5,29.86,East,88,0.0,0.0,95,0.00,,---,0.01,0.00,VWS V14.01,2013-05-09 06:22:00,
2013-05-09 02:28:00,52.8,51.4,29.86,East,88,0.0,0.0,95,0.00,,---,0.01,0.00,VWS V14.01,2013-05-09 06:28:00,
2013-05-09 02:30:00,52.8,51.4,29.86,East,88,0.0,0.0,95,0.00,,---,0.01,0.00,VWS V14.01,2013-05-09 06:30:00,
2013-05-09 02:33:00,52.8,51.4,29.86,East,88,0.0,0.0,95,0.00,,---,0.01,0.00,VWS V14.01,2013-05-09 06:33:00,
2013-05-09 02:38:00,52.3,50.6,29.86,East,88,0.0,3.0,94,0.00,,---,0.01,0.00,VWS V14.01,2013-05-09 06:38:00,
2013-05-09 02:43:00,52.0,50.3,29.86,East,88,0.0,3.0,94,0.00,,---,0.01,0.00,VWS V14.01,2013-05-09 06:43:00,
2013-05-09 02:48:00,51.7,50.0,29.86,East,88,0.0,3.0,94,0.00,,---,0.01,0.00,VWS V14.01,2013-05-09 06:48:00,
2013-05-09 02:53:00,51.4,50.0,29.86,East,88,0.0,3.0,95,0.00,,---,0.01,0.00,VWS V14.01,2013-05-09 06:53:00,
2013-05-09 02:58:00,51.3,49.9,29.86,East,88,1.0,3.0,95,0.00,,---,0.01,0.00,VWS V14.01,2013-05-09 06:58:00,
2013-05-09 03:00:00,51.2,49.8,29.86,East,88,0.0,3.0,95,0.00,,---,0.01,0.00,VWS V14.01,2013-05-09 07:00:00,
2013-05-09 03:03:00,51.1,49.4,29.86,East,88,0.0,0.0,94,0.00,,---,0.01,0.00,VWS V14.01,2013-05-09 07:03:00,
2013-05-09 03:08:00,51.0,49.6,29.86,East,88,0.0,0.0,95,0.00,,---,0.01,0.00,VWS V14.01,2013-05-09 07:08:00,
2013-05-09 03:13:00,51.0,49.6,29.86,East,88,0.0,0.0,95,0.00,,---,0.01,0.00,VWS V14.01,2013-05-09 07:13:00,
2013-05-09 03:18:00,51.0,49.6,29.86,East,88,0.0,0.0,95,0.00,,---,0.01,0.00,VWS V14.01,2013-05-09 07:18:00,
2013-05-09 03:23:00,51.0,49.6,29.86,East,88,0.0,0.0,95,0.00,,---,0.01,0.00,VWS V14.01,2013-05-09 07:23:00,
2013-05-09 03:28:00,50.9,49.5,29.86,East,88,0.0,0.0,95,0.00,,---,0.01,0.00,VWS V14.01,2013-05-09 07:28:00,
2013-05-09 03:30:00,50.9,49.5,29.86,East,88,0.0,0.0,95,0.00,,---,0.01,0.00,VWS V14.01,2013-05-09 07:30:00,
2013-05-09 03:33:00,50.9,49.5,29.86,East,88,0.0,0.0,95,0.00,,---,0.01,0.00,VWS V14.01,2013-05-09 07:33:00,
2013-05-09 03:38:00,51.0,49.6,29.86,East,88,0.0,0.0,95,0.00,,---,0.01,0.00,VWS V14.01,2013-05-09 07:38:00,
2013-05-09 03:43:00,51.0,49.6,29.86,East,88,0.0,1.0,95,0.00,,---,0.01,0.00,VWS V14.01,2013-05-09 07:43:00,
2013-05-09 03:48:00,50.9,49.5,29.86,East,88,0.0,1.0,95,0.00,,---,0.01,0.00,VWS V14.01,2013-05-09 07:48:00,
2013-05-09 03:53:00,50.9,49.8,29.86,East,88,0.0,1.0,96,0.00,,---,0.01,0.00,VWS V14.01,2013-05-09 07:53:00,
2013-05-09 03:58:00,50.9,49.8,29.86,East,88,0.0,1.0,96,0.00,,---,0.01,0.00,VWS V14.01,2013-05-09 07:58:00,
2013-05-09 04:00:00,50.8,49.7,29.86,East,88,0.0,1.0,96,0.00,,---,0.01,0.00,VWS V14.01,2013-05-09 08:00:00,
2013-05-09 04:03:00,50.8,49.7,29.86,East,88,0.0,0.0,96,0.00,,---,0.01,0.00,VWS V14.01,2013-05-09 08:03:00,
2013-05-09 04:08:00,50.6,49.2,29.86,East,88,0.0,2.0,95,0.00,,---,0.01,0.00,VWS V14.01,2013-05-09 08:08:00,
2013-05-09 04:13:00,50.6,49.2,29.86,East,88,0.0,2.0,95,0.00,,---,0.01,0.00,VWS V14.01,2013-05-09 08:13:00,
2013-05-09 04:18:00,50.4,49.0,29.87,East,88,0.0,2.0,95,0.00,,---,0.01,0.00,VWS V14.01,2013-05-09 08:18:00,
2013-05-09 04:23:00,50.3,48.9,29.87,East,88,0.0,2.0,95,0.00,,---,0.01,0.00,VWS V14.01,2013-05-09 08:23:00,
2013-05-09 04:28:00,50.1,48.7,29.87,East,88,0.0,2.0,95,0.00,,---,0.01,0.00,VWS V14.01,2013-05-09 08:28:00,
2013-05-09 04:30:00,50.1,48.7,29.87,East,88,0.0,2.0,95,0.00,,---,0.01,0.00,VWS V14.01,2013-05-09 08:30:00,
2013-05-09 04:33:00,50.0,48.6,29.87,East,88,0.0,0.0,95,0.00,,---,0.01,0.00,VWS V14.01,2013-05-09 08:33:00,
2013-05-09 04:38:00,49.7,48.3,29.87,East,88,0.0,0.0,95,0.00,,---,0.01,0.00,VWS V14.01,2013-05-09 08:38:00,
2013-05-09 04:43:00,49.6,48.2,29.87,East,88,0.0,0.0,95,0.00,,---,0.01,0.00,VWS V14.01,2013-05-09 08:43:00,
2013-05-09 04:48:00,49.6,48.5,29.87,East,88,0.0,0.0,96,0.00,,---,0.01,0.00,VWS V14.01,2013-05-09 08:48:00,
2013-05-09 04:53:00,49.5,48.1,29.87,East,88,0.0,0.0,95,0.00,,---,0.01,0.00,VWS V14.01,2013-05-09 08:53:00,
2013-05-09 04:58:00,49.5,48.4,29.87,East,88,0.0,0.0,96,0.00,,---,0.01,0.00,VWS V14.01,2013-05-09 08:58:00,
2013-05-09 05:00:00,49.5,48.4,29.87,East,88,0.0,0.0,96,0.00,,---,0.01,0.00,VWS V14.01,2013-05-09 09:00:00,
2013-05-09 05:03:00,49.6,48.5,29.87,East,88,0.0,0.0,96,0.00,,---,0.01,0.00,VWS V14.01,2013-05-09 09:03:00,
2013-05-09 05:08:00,49.6,48.5,29.87,East,88,0.0,0.0,96,0.00,,---,0.01,0.00,VWS V14.01,2013-05-09 09:08:00,
2013-05-09 05:13:00,49.5,48.4,29.87,East,88,0.0,0.0,96,0.00,,---,0.01,0.00,VWS V14.01,2013-05-09 09:13:00,
2013-05-09 05:19:00,49.5,48.4,29.87,East,88,0.0,0.0,96,0.00,,---,0.01,0.00,VWS V14.01,2013-05-09 09:19:00,
2013-05-09 05:24:00,49.4,48.3,29.87,East,88,0.0,0.0,96,0.00,,---,0.01,0.00,VWS V14.01,2013-05-09 09:24:00,
2013-05-09 05:29:00,49.0,47.6,29.88,East,88,0.0,0.0,95,0.00,,---,0.01,0.00,VWS V14.01,2013-05-09 09:29:00,
2013-05-09 05:30:00,48.9,47.5,29.88,East,88,0.0,0.0,95,0.00,,---,0.01,0.00,VWS V14.01,2013-05-09 09:30:00,
2013-05-09 05:34:00,48.7,47.3,29.88,East,88,0.0,2.0,95,0.00,,---,0.01,0.00,VWS V14.01,2013-05-09 09:34:00,
2013-05-09 05:39:00,48.5,47.1,29.88,East,88,0.0,2.0,95,0.00,,---,0.01,0.00,VWS V14.01,2013-05-09 09:39:00,
2013-05-09 05:44:00,48.6,47.5,29.88,East,88,0.0,2.0,96,0.00,,---,0.01,0.00,VWS V14.01,2013-05-09 09:44:00,
2013-05-09 05:49:00,48.6,47.5,29.88,East,88,0.0,2.0,96,0.00,,---,0.01,0.00,VWS V14.01,2013-05-09 09:49:00,
2013-05-09 05:54:00,48.7,47.6,29.88,East,88,0.0,2.0,96,0.00,,---,0.01,0.00,VWS V14.01,2013-05-09 09:54:00,
2013-05-09 05:59:00,48.8,47.7,29.88,East,88,0.0,2.0,96,0.00,,---,0.01,0.00,VWS V14.01,2013-05-09 09:59:00,
2013-05-09 06:00:00,48.8,47.7,29.89,East,88,0.0,2.0,96,0.00,,---,0.01,0.00,VWS V14.01,2013-05-09 10:00:00,
2013-05-09 06:04:00,49.0,47.9,29.89,East,88,1.0,1.0,96,0.00,,---,0.01,0.00,VWS V14.01,2013-05-09 10:04:00,
2013-05-09 06:09:00,49.4,48.3,29.89,East,90,1.0,2.0,96,0.00,,---,0.01,0.00,VWS V14.01,2013-05-09 10:09:00,
2013-05-09 06:14:00,50.2,49.4,29.89,ESE,113,0.0,3.0,97,0.00,,---,0.01,0.00,VWS V14.01,2013-05-09 10:14:00,
2013-05-09 06:19:00,51.0,50.2,29.89,ESE,113,0.0,3.0,97,0.00,,---,0.01,0.00,VWS V14.01,2013-05-09 10:19:00,
2013-05-09 06:24:00,51.5,50.7,29.89,ESE,113,0.0,3.0,97,0.00,,---,0.01,5.00,VWS V14.01,2013-05-09 10:24:00,
2013-05-09 06:29:00,51.8,51.0,29.90,SSE,162,1.0,4.0,97,0.00,,---,0.01,5.00,VWS V14.01,2013-05-09 10:29:00,
2013-05-09 06:30:00,51.9,51.1,29.90,SSE,162,2.0,4.0,97,0.00,,---,0.01,7.00,VWS V14.01,2013-05-09 10:30:00,
2013-05-09 06:34:00,52.2,51.4,29.90,SSW,207,0.0,4.0,97,0.00,,---,0.01,9.00,VWS V14.01,2013-05-09 10:34:00,
2013-05-09 06:39:00,52.4,51.6,29.90,SSW,207,0.0,4.0,97,0.00,,---,0.01,11.00,VWS V14.01,2013-05-09 10:39:00,
2013-05-09 06:44:00,52.6,51.8,29.90,SSW,207,0.0,4.0,97,0.00,,---,0.01,14.00,VWS V14.01,2013-05-09 10:44:00,
2013-05-09 06:49:00,52.7,51.9,29.90,SSW,207,0.0,4.0,97,0.00,,---,0.01,18.00,VWS V14.01,2013-05-09 10:49:00,
2013-05-09 06:54:00,52.7,51.9,29.90,SSW,207,0.0,4.0,97,0.00,,---,0.01,21.00,VWS V14.01,2013-05-09 10:54:00,
2013-05-09 06:59:00,52.8,52.0,29.90,SSW,207,0.0,4.0,97,0.00,,---,0.01,30.00,VWS V14.01,2013-05-09 10:59:00,
2013-05-09 07:00:00,52.8,52.0,29.90,SSW,207,0.0,4.0,97,0.00,,---,0.01,28.00,VWS V14.01,2013-05-09 11:00:00,
2013-05-09 07:04:00,52.8,52.0,29.91,SSW,207,0.0,0.0,97,0.00,,---,0.01,30.00,VWS V14.01,2013-05-09 11:04:00,
2013-05-09 07:09:00,52.8,52.0,29.91,SSW,207,0.0,0.0,97,0.00,,---,0.01,60.00,VWS V14.01,2013-05-09 11:09:00,
2013-05-09 07:14:00,52.9,52.1,29.91,SSW,207,0.0,0.0,97,0.00,,---,0.01,76.00,VWS V14.01,2013-05-09 11:14:00,
2013-05-09 07:19:00,52.9,52.1,29.91,SSW,207,0.0,0.0,97,0.00,,---,0.01,84.00,VWS V14.01,2013-05-09 11:19:00,
2013-05-09 07:24:00,53.0,52.2,29.91,SSW,207,0.0,0.0,97,0.00,,---,0.01,98.00,VWS V14.01,2013-05-09 11:24:00,
2013-05-09 07:29:00,53.3,52.5,29.92,SSW,207,0.0,0.0,97,0.00,,---,0.01,113.00,VWS V14.01,2013-05-09 11:29:00,
2013-05-09 07:30:00,53.3,52.5,29.92,SSW,207,0.0,0.0,97,0.00,,---,0.01,118.00,VWS V14.01,2013-05-09 11:30:00,
2013-05-09 07:34:00,53.5,52.7,29.92,SSW,207,0.0,0.0,97,0.00,,---,0.01,128.00,VWS V14.01,2013-05-09 11:34:00,
2013-05-09 07:40:00,53.8,53.0,29.92,SSW,207,0.0,0.0,97,0.00,,---,0.01,118.00,VWS V14.01,2013-05-09 11:40:00,
2013-05-09 07:45:00,54.1,53.3,29.92,SSW,207,0.0,0.0,97,0.00,,---,0.01,162.00,VWS V14.01,2013-05-09 11:45:00,
2013-05-09 07:50:00,54.4,53.6,29.92,SSW,207,0.0,0.0,97,0.00,,---,0.01,142.00,VWS V14.01,2013-05-09 11:50:00,
2013-05-09 07:55:00,54.6,53.8,29.92,SSW,207,0.0,0.0,97,0.00,,---,0.01,192.00,VWS V14.01,2013-05-09 11:55:00,
2013-05-09 08:00:00,54.9,54.1,29.92,SSW,207,0.0,0.0,97,0.00,,---,0.01,207.00,VWS V14.01,2013-05-09 12:00:00,
2013-05-09 08:05:00,55.2,54.4,29.92,SSW,207,0.0,1.0,97,0.00,,---,0.01,220.00,VWS V14.01,2013-05-09 12:05:00,
2013-05-09 08:10:00,55.5,54.7,29.92,SSW,207,0.0,1.0,97,0.00,,---,0.01,236.00,VWS V14.01,2013-05-09 12:10:00,
2013-05-09 08:15:00,55.8,55.0,29.92,SSW,207,0.0,1.0,97,0.00,,---,0.01,251.00,VWS V14.01,2013-05-09 12:15:00,
2013-05-09 08:20:00,56.1,55.3,29.92,SSW,207,1.0,3.0,97,0.00,,---,0.01,271.00,VWS V14.01,2013-05-09 12:20:00,
2013-05-09 08:25:00,56.4,55.8,29.92,SSW,207,0.0,3.0,98,0.00,,---,0.01,290.00,VWS V14.01,2013-05-09 12:25:00,
2013-05-09 08:30:00,56.7,55.9,29.92,SSW,207,0.0,3.0,97,0.00,,---,0.01,309.00,VWS V14.01,2013-05-09 12:30:00,
2013-05-09 08:35:00,57.0,56.4,29.92,SSW,207,1.0,3.0,98,0.00,,---,0.01,332.00,VWS V14.01,2013-05-09 12:35:00,
2013-05-09 08:40:00,57.3,56.5,29.92,SSW,207,1.0,4.0,97,0.00,,---,0.01,346.00,VWS V14.01,2013-05-09 12:40:00,
2013-05-09 08:45:00,57.6,56.8,29.92,SSW,208,0.0,4.0,97,0.00,,---,0.01,366.00,VWS V14.01,2013-05-09 12:45:00,
2013-05-09 08:50:00,57.8,57.2,29.92,SSW,207,0.0,4.0,98,0.00,,---,0.01,387.00,VWS V14.01,2013-05-09 12:50:00,
2013-05-09 08:55:00,58.2,57.4,29.91,SSW,207,1.0,6.0,97,0.00,,---,0.01,403.00,VWS V14.01,2013-05-09 12:55:00,
2013-05-09 09:00:00,58.7,58.1,29.91,SSW,208,1.0,6.0,98,0.00,,---,0.01,418.00,VWS V14.01,2013-05-09 13:00:00,
2013-05-09 09:05:00,59.1,58.5,29.92,SW,225,3.0,6.0,98,0.00,,---,0.01,431.00,VWS V14.01,2013-05-09 13:05:00,
2013-05-09 09:10:00,59.4,58.5,29.92,SSW,207,2.0,7.0,97,0.00,,---,0.01,446.00,VWS V14.01,2013-05-09 13:10:00,
2013-05-09 09:15:00,59.9,59.0,29.92,SSW,207,3.0,7.0,97,0.00,,---,0.01,462.00,VWS V14.01,2013-05-09 13:15:00,
2013-05-09 09:20:00,60.3,59.5,29.92,SW,227,4.0,7.0,97,0.00,,---,0.01,476.00,VWS V14.01,2013-05-09 13:20:00,
2013-05-09 09:25:00,60.7,59.6,29.92,SW,232,1.0,7.0,96,0.00,,---,0.01,490.00,VWS V14.01,2013-05-09 13:25:00,
2013-05-09 09:30:00,61.3,60.2,29.92,SW,236,4.0,7.0,96,0.00,,---,0.01,504.00,VWS V14.01,2013-05-09 13:30:00,
2013-05-09 09:35:00,61.8,60.1,29.91,SW,217,2.0,6.0,94,0.00,,---,0.01,520.00,VWS V14.01,2013-05-09 13:35:00,
2013-05-09 09:40:00,62.4,60.0,29.92,WSW,237,3.0,6.0,92,0.00,,---,0.01,538.00,VWS V14.01,2013-05-09 13:40:00,
2013-05-09 09:45:00,63.1,60.1,29.92,SSW,205,5.0,6.0,90,0.00,,---,0.01,554.00,VWS V14.01,2013-05-09 13:45:00,
2013-05-09 09:50:00,63.7,60.1,29.91,WSW,238,4.0,7.0,88,0.00,,---,0.01,564.00,VWS V14.01,2013-05-09 13:50:00,
2013-05-09 09:55:00,64.4,59.8,29.91,SW,215,5.0,7.0,85,0.00,,---,0.01,584.00,VWS V14.01,2013-05-09 13:55:00,
2013-05-09 10:00:00,65.0,60.0,29.91,SW,223,2.0,7.0,84,0.00,,---,0.01,598.00,VWS V14.01,2013-05-09 14:00:00,
2013-05-09 10:05:00,65.7,60.1,29.92,WSW,244,5.0,7.0,82,0.00,,---,0.01,612.00,VWS V14.01,2013-05-09 14:05:00,
2013-05-09 10:10:00,66.4,60.0,29.91,West,265,1.0,7.0,80,0.00,,---,0.01,619.00,VWS V14.01,2013-05-09 14:10:00,
2013-05-09 10:15:00,67.0,60.3,29.92,WSW,248,3.0,7.0,79,0.00,,---,0.01,635.00,VWS V14.01,2013-05-09 14:15:00,
2013-05-09 10:20:00,67.6,59.8,29.91,SW,236,5.0,7.0,76,0.00,,---,0.01,650.00,VWS V14.01,2013-05-09 14:20:00,
2013-05-09 10:25:00,68.2,60.7,29.91,West,261,0.0,7.0,77,0.00,,---,0.01,654.00,VWS V14.01,2013-05-09 14:25:00,
2013-05-09 10:30:00,68.8,60.9,29.91,WSW,258,6.0,6.0,76,0.00,,---,0.01,679.00,VWS V14.01,2013-05-09 14:30:00,
2013-05-09 10:35:00,69.3,61.0,29.91,West,264,1.0,6.0,75,0.00,,---,0.01,684.00,VWS V14.01,2013-05-09 14:35:00,
2013-05-09 10:40:00,69.8,61.2,29.91,WNW,294,2.0,6.0,74,0.00,,---,0.01,700.00,VWS V14.01,2013-05-09 14:40:00,
2013-05-09 10:45:00,70.3,58.8,29.92,West,272,3.0,6.0,67,0.00,,---,0.01,712.00,VWS V14.01,2013-05-09 14:45:00,
2013-05-09 10:50:00,70.8,59.3,29.92,WNW,291,3.0,6.0,67,0.00,,---,0.01,733.00,VWS V14.01,2013-05-09 14:50:00,
2013-05-09 10:55:00,71.4,59.9,29.92,West,277,3.0,7.0,67,0.00,,---,0.01,738.00,VWS V14.01,2013-05-09 14:55:00,
2013-05-09 11:00:00,71.8,59.8,29.92,SW,228,6.0,6.0,66,0.00,,---,0.01,751.00,VWS V14.01,2013-05-09 15:00:00,
2013-05-09 11:05:00,71.9,59.5,29.92,West,266,5.0,12.0,65,0.00,,---,0.01,763.00,VWS V14.01,2013-05-09 15:05:00,
2013-05-09 11:10:00,71.9,59.1,29.92,West,268,5.0,12.0,64,0.00,,---,0.01,777.00,VWS V14.01,2013-05-09 15:10:00,
2013-05-09 11:15:00,72.1,60.5,29.91,West,263,9.0,12.0,67,0.00,,---,0.01,789.00,VWS V14.01,2013-05-09 15:15:00,
2013-05-09 11:20:00,72.4,59.5,29.92,WSW,242,8.0,12.0,64,0.00,,---,0.01,807.00,VWS V14.01,2013-05-09 15:20:00,
2013-05-09 11:25:00,72.4,60.0,29.92,NW,308,3.0,12.0,65,0.00,,---,0.01,809.00,VWS V14.01,2013-05-09 15:25:00,
2013-05-09 11:30:00,72.9,59.1,29.92,WNW,294,3.0,12.0,62,0.00,,---,0.01,823.00,VWS V14.01,2013-05-09 15:30:00,
2013-05-09 11:31:00,72.9,59.6,29.92,West,275,1.0,5.0,63,0.00,,---,0.01,823.00,VWS V14.01,2013-05-09 15:31:00,
2013-05-09 11:36:00,73.2,60.3,29.92,West,279,5.0,8.0,64,0.00,,---,0.01,821.00,VWS V14.01,2013-05-09 15:36:00,
2013-05-09 11:41:00,73.5,59.7,29.92,WNW,300,4.0,10.0,62,0.00,,---,0.01,831.00,VWS V14.01,2013-05-09 15:41:00,
2013-05-09 11:46:00,73.8,58.6,29.92,WSW,241,6.0,12.0,59,0.00,,---,0.01,847.00,VWS V14.01,2013-05-09 15:46:00,
2013-05-09 11:51:00,73.7,59.0,29.92,WSW,256,7.0,13.0,60,0.00,,---,0.01,872.00,VWS V14.01,2013-05-09 15:51:00,
2013-05-09 11:56:00,73.8,59.1,29.92,WNW,298,5.0,13.0,60,0.00,,---,0.01,956.00,VWS V14.01,2013-05-09 15:56:00,
2013-05-09 12:00:00,74.2,58.0,29.92,NW,304,3.0,13.0,57,0.00,,---,0.01,1013.00,VWS V14.01,2013-05-09 16:00:00,
2013-05-09 12:01:00,74.2,58.5,29.92,NW,319,4.0,5.0,58,0.00,,---,0.01,1013.00,VWS V14.01,2013-05-09 16:01:00,
2013-05-09 12:06:00,74.4,58.2,29.92,WNW,297,4.0,10.0,57,0.00,,---,0.01,406.00,VWS V14.01,2013-05-09 16:06:00,
2013-05-09 12:11:00,74.4,58.2,29.92,NW,318,4.0,10.0,57,0.00,,---,0.01,406.00,VWS V14.01,2013-05-09 16:11:00,
2013-05-09 12:16:00,74.7,59.0,29.92,West,269,4.0,10.0,58,0.00,,---,0.01,490.00,VWS V14.01,2013-05-09 16:16:00,
2013-05-09 12:21:00,75.2,59.4,29.92,NW,315,9.0,10.0,58,0.00,,---,0.01,1060.00,VWS V14.01,2013-05-09 16:21:00,
2013-05-09 12:26:00,75.8,59.5,29.92,NW,325,1.0,10.0,57,0.00,,---,0.01,348.00,VWS V14.01,2013-05-09 16:26:00,
2013-05-09 12:30:00,76.1,59.8,29.92,WNW,288,4.0,10.0,57,0.00,,---,0.01,1016.00,VWS V14.01,2013-05-09 16:30:00,
2013-05-09 12:31:00,76.1,59.3,29.91,WNW,289,2.0,4.0,56,0.00,,---,0.01,353.00,VWS V14.01,2013-05-09 16:31:00,
2013-05-09 12:36:00,76.0,58.7,29.92,West,281,2.0,10.0,55,0.00,,---,0.01,369.00,VWS V14.01,2013-05-09 16:36:00,
2013-05-09 12:41:00,75.7,59.4,29.92,West,266,8.0,12.0,57,0.00,,---,0.01,932.00,VWS V14.01,2013-05-09 16:41:00,
2013-05-09 12:46:00,75.7,59.4,29.92,WNW,298,2.0,12.0,57,0.00,,---,0.01,942.00,VWS V14.01,2013-05-09 16:46:00,
2013-05-09 12:51:00,75.8,59.0,29.91,West,261,5.0,13.0,56,0.00,,---,0.01,1009.00,VWS V14.01,2013-05-09 16:51:00,
2013-05-09 13:00:00,75.8,60.5,29.91,WNW,292,5.0,13.0,59,0.00,,---,0.01,874.00,VWS V14.01,2013-05-09 17:00:00,
2013-05-09 13:30:00,76.1,59.3,29.91,WNW,292,3.0,11.0,56,0.00,,---,0.01,417.00,VWS V14.01,2013-05-09 17:30:00,
2013-05-09 14:00:00,76.3,56.9,29.90,West,270,4.0,14.0,51,0.00,,---,0.01,898.00,VWS V14.01,2013-05-09 18:00:00,
2013-05-09 14:30:00,76.2,60.8,29.90,WSW,248,6.0,15.0,59,0.00,,---,0.01,554.00,VWS V14.01,2013-05-09 18:30:00,
2013-05-09 15:00:00,76.0,61.1,29.90,WSW,248,7.0,16.0,60,0.00,,---,0.01,800.00,VWS V14.01,2013-05-09 19:00:00,
2013-05-09 15:30:00,76.2,58.9,29.90,WSW,248,6.0,15.0,55,0.00,,---,0.01,624.00,VWS V14.01,2013-05-09 19:30:00,
2013-05-09 16:00:00,76.5,58.1,29.89,WSW,248,6.0,18.0,53,0.00,,---,0.01,752.00,VWS V14.01,2013-05-09 20:00:00,
2013-05-09 16:30:00,77.2,58.2,29.88,West,270,3.0,12.0,52,0.00,,---,0.01,448.00,VWS V14.01,2013-05-09 20:30:00,
2013-05-09 17:00:00,77.6,59.1,29.86,WSW,248,4.0,12.0,53,0.00,,---,0.01,315.00,VWS V14.01,2013-05-09 21:00:00,
2013-05-09 17:30:00,77.8,56.6,29.86,WSW,248,4.0,13.0,48,0.00,,---,0.01,577.00,VWS V14.01,2013-05-09 21:30:00,
2013-05-09 18:00:00,78.4,55.9,29.85,West,270,4.0,11.0,46,0.00,,---,0.01,388.00,VWS V14.01,2013-05-09 22:00:00,
2013-05-09 18:30:00,77.7,54.7,29.86,WSW,248,5.0,11.0,45,0.00,,---,0.01,238.00,VWS V14.01,2013-05-09 22:30:00,
2013-05-09 19:00:00,76.2,55.7,29.86,WSW,248,3.0,10.0,49,0.00,,---,0.01,123.00,VWS V14.01,2013-05-09 23:00:00,
2013-05-09 19:30:00,75.3,55.9,29.86,SW,225,2.0,7.0,51,0.00,,---,0.01,86.00,VWS V14.01,2013-05-09 23:30:00,
2013-05-09 20:00:00,74.5,56.3,29.87,SSW,202,2.0,6.0,53,0.00,,---,0.01,49.00,VWS V14.01,2013-05-10 00:00:00,
2013-05-09 20:30:00,73.3,56.2,29.86,SSW,202,1.0,5.0,55,0.00,,---,0.01,15.00,VWS V14.01,2013-05-10 00:30:00,
2013-05-09 21:00:00,71.8,56.2,29.87,SSW,202,1.0,5.0,58,0.00,,---,0.01,0.00,VWS V14.01,2013-05-10 01:00:00,
2013-05-09 21:30:00,70.8,55.8,29.87,South,180,2.0,6.0,59,0.00,,---,0.01,0.00,VWS V14.01,2013-05-10 01:30:00,
2013-05-09 22:00:00,70.1,56.0,29.88,South,180,1.0,7.0,61,0.00,,---,0.01,0.00,VWS V14.01,2013-05-10 02:00:00,
2013-05-09 22:30:00,69.1,56.0,29.88,South,180,1.0,4.0,63,0.00,,---,0.01,0.00,VWS V14.01,2013-05-10 02:30:00,
2013-05-09 23:00:00,68.1,56.3,29.88,South,180,1.0,5.0,66,0.00,,---,0.01,0.00,VWS V14.01,2013-05-10 03:00:00,
2013-05-09 23:30:00,67.5,56.2,29.87,South,180,1.0,6.0,67,0.00,,---,0.01,0.00,VWS V14.01,2013-05-10 03:30:00,